Casa Grande, AZ

5:23 AM MST on May 26, 2017 (GMT -0700)
Casa Grande Municipal

Weather History for KCGZ - July, 2013

Change the Weather History Date:

Sunday, July 28, 2013

  Actual Average Record
Temperature  
Mean Temperature 92 °F -  
Max Temperature 105 °F 100 °F 109 °F (2000)
Min Temperature 80 °F 77 °F 71 °F (1999)
Cooling Degree Days 28    
Growing Degree Days 42 (Base 50)    
Moisture  
Dew Point 54 °F    
Average Humidity 30    
Maximum Humidity 58    
Minimum Humidity 14    
Precipitation  
Precipitation 0.00 in - - ()
Sea Level Pressure  
Sea Level Pressure 29.82 in    
Wind  
Wind Speed 6 mph (South)    
Max Wind Speed 17 mph    
Max Gust Speed 25 mph    
Visibility 10 miles    
Events      
Averages and records for this station are not official NWS values.
T = Trace of Precipitation, MM = Missing Value Source: NWS Daily Summary

Daily Weather History Graph

Daily Weather History Graph

Search for Another Location

Airport or City:

Trip Planner

Search our weather history database for the weather conditions in past years. The results will help you decide how hot, cold, wet, or windy it might be!

Date:

Astronomy

Jul. 28, 2013 Rise Set
Actual Time 5:38 AM MST 7:28 PM MST
Civil Twilight 5:10 AM MST 7:55 PM MST
Nautical Twilight 4:37 AM MST 8:28 PM MST
Astronomical Twilight 4:02 AM MST 9:03 PM MST
Moon 11:18 PM MST (7/28) 11:59 AM MST (7/28)
Length of Visible Light 14h 44m
Length of Day
13h 50m
Waning Gibbous, 60% of the Moon is Illuminated
Jul 28
Waning Gibbous
Jul 29
Last Quarter
Aug 6
New
Aug 14
First Quarter
Aug 20
Full

Hourly Weather History & Observations

Time (MST) Temp. Heat Index Dew Point Humidity Pressure Visibility Wind Dir Wind Speed Gust Speed Precip Events Conditions
12:15 AM 89.6 °F 90.1 °F 62.6 °F 40% 29.84 in 8.0 mi East 5.8 mph - N/A   Clear
12:35 AM 89.6 °F 90.1 °F 62.6 °F 40% 29.83 in 7.0 mi SE 5.8 mph - N/A   Clear
12:55 AM 89.6 °F 90.1 °F 62.6 °F 40% 29.83 in 7.0 mi SE 4.6 mph - N/A   Clear
1:15 AM 87.8 °F 88.5 °F 62.6 °F 43% 29.83 in 7.0 mi Calm Calm - N/A   Clear
1:35 AM 87.8 °F 88.5 °F 62.6 °F 43% 29.82 in 7.0 mi SSE 3.5 mph - N/A   Clear
1:55 AM 87.8 °F 88.5 °F 62.6 °F 43% 29.82 in 8.0 mi Calm Calm - N/A   Clear
2:15 AM 87.8 °F 88.5 °F 62.6 °F 43% 29.82 in 10.0 mi SSE 4.6 mph - N/A   Clear
2:35 AM 84.2 °F 85.0 °F 62.6 °F 48% 29.82 in 10.0 mi NE 4.6 mph - N/A   Clear
2:55 AM 84.2 °F 85.0 °F 62.6 °F 48% 29.82 in 10.0 mi NE 4.6 mph - N/A   Clear
3:15 AM 82.4 °F 83.9 °F 64.4 °F 54% 29.82 in 10.0 mi ENE 3.5 mph - N/A   Clear
3:35 AM 82.4 °F 83.4 °F 62.6 °F 51% 29.83 in 10.0 mi ENE 5.8 mph - N/A   Clear
3:55 AM 84.2 °F 85.0 °F 62.6 °F 48% 29.82 in 10.0 mi East 6.9 mph - N/A   Clear
4:15 AM 82.4 °F 83.4 °F 62.6 °F 51% 29.83 in 10.0 mi ENE 3.5 mph - N/A   Clear
4:35 AM 82.4 °F 83.4 °F 62.6 °F 51% 29.83 in 10.0 mi SE 6.9 mph - N/A   Partly Cloudy
4:55 AM 82.4 °F 83.4 °F 62.6 °F 51% 29.83 in 10.0 mi ESE 5.8 mph - N/A   Clear
5:15 AM 82.4 °F 83.9 °F 64.4 °F 54% 29.83 in 10.0 mi ESE 3.5 mph - N/A   Clear
5:35 AM 82.4 °F 83.9 °F 64.4 °F 54% 29.84 in 10.0 mi Calm Calm - N/A   Clear
5:55 AM 80.6 °F 82.3 °F 64.4 °F 58% 29.85 in 10.0 mi NE 4.6 mph - N/A   Clear
6:15 AM 80.6 °F 82.3 °F 64.4 °F 58% 29.85 in 10.0 mi NE 4.6 mph - N/A   Clear
6:35 AM 80.6 °F 82.3 °F 64.4 °F 58% 29.85 in 10.0 mi ENE 5.8 mph - N/A   Clear
6:55 AM 82.4 °F 83.9 °F 64.4 °F 54% 29.86 in 10.0 mi Calm Calm - N/A   Clear
7:15 AM 82.4 °F 83.9 °F 64.4 °F 54% 29.87 in 10.0 mi Calm Calm - N/A   Clear
7:35 AM 84.2 °F 85.0 °F 62.6 °F 48% 29.87 in 10.0 mi SSE 3.5 mph - N/A   Clear
7:55 AM 87.8 °F 87.1 °F 59.0 °F 38% 29.86 in 10.0 mi South 5.8 mph - N/A   Clear
8:15 AM 89.6 °F 88.1 °F 57.2 °F 33% 29.87 in 10.0 mi SSE 4.6 mph - N/A   Clear
8:35 AM 89.6 °F 88.1 °F 57.2 °F 33% 29.87 in 10.0 mi South 5.8 mph - N/A   Clear
8:55 AM 91.4 °F 89.4 °F 55.4 °F 29% 29.87 in 10.0 mi South 5.8 mph - N/A   Clear
9:15 AM 93.2 °F 91.9 °F 57.2 °F 30% 29.87 in 10.0 mi SSW 6.9 mph - N/A   Clear
9:35 AM 93.2 °F 90.8 °F 53.6 °F 26% 29.87 in 10.0 mi SW 4.6 mph - N/A   Clear
9:55 AM 95.0 °F 92.7 °F 53.6 °F 25% 29.87 in 10.0 mi SW 3.5 mph - N/A   Clear
10:15 AM 96.8 °F 94.4 °F 53.6 °F 23% 29.87 in 10.0 mi SW 4.6 mph - N/A   Clear
10:35 AM 96.8 °F 94.4 °F 53.6 °F 23% 29.87 in 10.0 mi SE 4.6 mph - N/A   Clear
10:55 AM 96.8 °F 94.4 °F 53.6 °F 23% 29.86 in 10.0 mi SSW 5.8 mph - N/A   Clear
11:15 AM 96.8 °F 94.4 °F 53.6 °F 23% 29.86 in 10.0 mi SW 6.9 mph - N/A   Clear
11:35 AM 98.6 °F - 51.8 °F 21% 29.85 in 10.0 mi WSW 3.5 mph - N/A   Clear
11:55 AM 98.6 °F - 51.8 °F 21% 29.85 in 10.0 mi South 5.8 mph - N/A   Clear
12:15 PM 100.4 °F - 51.8 °F 20% 29.85 in 10.0 mi Calm Calm - N/A   Clear
12:35 PM 100.4 °F - 51.8 °F 20% 29.84 in 10.0 mi WSW 6.9 mph - N/A   Clear
12:55 PM 100.4 °F - 51.8 °F 20% 29.83 in 10.0 mi NW 3.5 mph - N/A   Clear
1:15 PM 100.4 °F - 51.8 °F 20% 29.82 in 10.0 mi Calm Calm - N/A   Clear
1:35 PM 104.0 °F - 51.8 °F 17% 29.81 in 10.0 mi South 11.5 mph 19.6 mph N/A   Clear
1:55 PM 102.2 °F - 51.8 °F 18% 29.80 in 10.0 mi West 6.9 mph - N/A   Clear
2:15 PM 104.0 °F - 51.8 °F 17% 29.79 in 10.0 mi SSW 9.2 mph - N/A   Clear
2:35 PM 105.8 °F - 51.8 °F 17% 29.78 in 10.0 mi South 12.7 mph 16.1 mph N/A   Partly Cloudy
2:55 PM 104.0 °F - 51.8 °F 17% 29.78 in 10.0 mi WSW 12.7 mph 25.3 mph N/A   Partly Cloudy
3:15 PM 104.0 °F - 50.0 °F 16% 29.77 in 10.0 mi SW 17.3 mph 20.7 mph N/A   Clear
3:35 PM 104.0 °F - 48.2 °F 15% 29.76 in 10.0 mi Calm Calm - N/A   Clear
3:55 PM 105.8 °F - 50.0 °F 15% 29.76 in 10.0 mi West 9.2 mph - N/A   Clear
4:15 PM 105.8 °F - 48.2 °F 14% 29.75 in 10.0 mi South 12.7 mph 19.6 mph N/A   Clear
4:35 PM 105.8 °F - 48.2 °F 14% 29.74 in 10.0 mi SW 11.5 mph 19.6 mph N/A   Clear
4:55 PM 105.8 °F - 48.2 °F 14% 29.74 in 10.0 mi SW 16.1 mph - N/A   Clear
5:15 PM 104.0 °F - 48.2 °F 15% 29.74 in 10.0 mi SW 5.8 mph - N/A   Clear
5:35 PM 104.0 °F - 48.2 °F 15% 29.73 in 10.0 mi West 9.2 mph 17.3 mph N/A   Clear
5:55 PM 102.2 °F - 48.2 °F 16% 29.73 in 10.0 mi SSW 9.2 mph - N/A   Clear
6:15 PM 102.2 °F - 48.2 °F 16% 29.73 in 10.0 mi SSW 9.2 mph - N/A   Clear
6:35 PM 102.2 °F - 48.2 °F 16% 29.74 in 10.0 mi SSW 10.4 mph - N/A   Scattered Clouds
6:55 PM 100.4 °F - 48.2 °F 17% 29.74 in 10.0 mi SSW 10.4 mph - N/A   Partly Cloudy
7:15 PM 100.4 °F - 48.2 °F 17% 29.75 in 10.0 mi South 15.0 mph - N/A   Clear
7:35 PM 100.4 °F - 46.4 °F 16% 29.75 in 10.0 mi SSW 12.7 mph 19.6 mph N/A   Clear
7:55 PM 98.6 °F - 46.4 °F 17% 29.76 in 10.0 mi SSW 12.7 mph 19.6 mph N/A   Clear
8:15 PM 96.8 °F - 46.4 °F 18% 29.77 in 10.0 mi SSW 12.7 mph - N/A   Clear
8:35 PM 96.8 °F - 44.6 °F 17% 29.78 in 10.0 mi SSW 10.4 mph - N/A   Clear
8:55 PM 95.0 °F - 46.4 °F 19% 29.80 in 10.0 mi SW 8.1 mph - N/A   Clear
9:15 PM 93.2 °F - 46.4 °F 20% 29.81 in 10.0 mi SW 6.9 mph - N/A   Clear
9:35 PM 93.2 °F - 46.4 °F 20% 29.81 in 10.0 mi WSW 5.8 mph - N/A   Clear
9:55 PM 91.4 °F - 46.4 °F 21% 29.82 in 10.0 mi SW 5.8 mph - N/A   Clear
10:15 PM 89.6 °F - 46.4 °F 22% 29.82 in 10.0 mi SW 6.9 mph - N/A   Clear
10:35 PM 89.6 °F - 46.4 °F 22% 29.82 in 10.0 mi SSW 4.6 mph - N/A   Clear
10:55 PM 89.6 °F - 46.4 °F 22% 29.83 in 10.0 mi SSW 4.6 mph - N/A   Clear
11:15 PM 87.8 °F - 46.4 °F 24% 29.83 in 10.0 mi SSE 4.6 mph - N/A   Clear
11:35 PM 89.6 °F - 44.6 °F 21% 29.84 in 10.0 mi South 6.9 mph - N/A   Clear
11:55 PM 87.8 °F - 46.4 °F 24% 29.83 in 10.0 mi SSW 5.8 mph - N/A   Clear